Temp
32 33 36 38 41 44 47 50 56 63 64 64 64 63 62 61 63 63 61 61 62 60
31 32 34 36 39 41 45 50 53 62 63 63 63 62 61 60 60 63 62 61 61 60
30 32 33 35 37 40 44 47 50 53 62 62 62 62 61 60 59 59 61 62 60 60
29 31 33 34 38 41 43 46 49 52 62 62 62 61 60 61 60 60 60 61 60 59
29 30 31 34 37 40 42 45 49 53 58 62 62 61 61 60 60 59 59 59 59 60
27 29 31 32 35 38 41 43 46 50 54 61 62 61 61 61 61 60 61 61 59 59
26 28 30 32 34 36 40 41 44 49 55 61 61 61 61 61 60 59 60 60 61 60
26 29 30 31 33 36 39 41 44 48 52 60 60 61 60 60 60 59 59 59 59 61
24 28 28 30 32 35 37 40 43 46 51 58 59 56 56 59 59 59 59 58 59 60
24 26 27 29 31 34 36 39 42 46 50 55 58 54 55 55 59 58 58 59 58 57
23 25 26 28 30 32 35 36 40 44 49 55 56 51 53 53 59 59 58 59 58 57
24 25 25 26 29 31 33 35 38 41 48 52 56 54 52 52 58 57 57 58 58 58
25 25 25 25 28 31 32 33 36 36 37 46 48 50 51 53 57 56 56 57 57 51
24 25 25 26 29 31 31 31 32 34 34 35 40 42 48 51 57 56 55 54 54 54
MSLP
1022.35 1021.22 1020.02 1018.87 1017.72 1016.45 1015.31 1013.85 1012.95 1011.00 1010.80 1011.35 1012.19 1012.71 1013.56 1014.14 1014.87 1015.57 1015.90 1016.21 1016.86 1017.64
1021.67 1020.79 1019.65 1018.63 1017.66 1016.08 1014.95 1014.20 1012.64 1009.62 1009.94 1010.57 1011.30 1011.97 1012.62 1013.24 1013.85 1014.80 1015.03 1015.55 1015.81 1016.67
1020.74 1019.94 1018.93 1017.98 1016.58 1015.60 1013.93 1012.50 1011.73 1010.89 1008.46 1009.34 1010.45 1010.91 1011.61 1012.28 1012.73 1013.35 1014.18 1014.67 1015.23 1015.94
1020.43 1019.29 1018.11 1016.75 1015.45 1014.35 1013.29 1011.81 1011.42 1010.88 1008.25 1007.89 1009.05 1009.69 1010.35 1011.08 1011.89 1012.52 1013.01 1013.83 1014.55 1015.05
1019.75 1018.53 1017.26 1015.88 1014.54 1013.34 1011.92 1011.56 1010.26 1009.47 1008.26 1006.15 1006.97 1008.09 1009.03 1009.84 1010.47 1011.20 1011.71 1012.61 1013.50 1014.08
1018.86 1017.69 1016.24 1014.89 1013.57 1012.51 1011.66 1010.47 1009.58 1008.57 1007.68 1004.42 1005.63 1006.56 1007.75 1008.60 1009.21 1010.19 1010.72 1011.25 1012.13 1012.82
1018.09 1016.75 1015.31 1013.95 1012.63 1011.23 1010.10 1009.24 1008.62 1007.56 1006.30 1004.76 1004.70 1005.49 1006.32 1007.26 1008.28 1008.89 1009.68 1010.41 1010.95 1011.77
1017.34 1015.91 1014.46 1012.80 1011.24 1010.12 1008.97 1008.01 1007.17 1006.47 1005.19 1003.36 1003.64 1004.05 1004.74 1006.03 1006.98 1007.75 1008.83 1009.78 1009.48 1010.62
1016.94 1014.85 1013.10 1011.55 1010.33 1008.89 1007.39 1006.62 1005.84 1005.01 1004.02 1002.61 1002.28 1003.09 1003.92 1004.10 1005.70 1006.70 1007.47 1008.15 1009.09 1009.78
1016.23 1014.26 1012.48 1010.70 1008.92 1007.28 1006.17 1005.45 1004.55 1003.75 1003.18 1002.25 1001.92 1002.11 1003.03 1003.49 1004.40 1005.72 1006.24 1007.22 1007.86 1008.86
1015.73 1013.61 1011.54 1009.59 1008.05 1006.42 1005.25 1004.23 1003.45 1002.80 1001.89 1001.24 1001.26 1001.70 1002.16 1002.76 1003.18 1004.32 1005.43 1006.19 1006.75 1007.41
1015.11 1013.16 1011.17 1009.32 1007.43 1005.85 1004.42 1003.40 1002.71 1002.07 1001.30 1000.59 1000.29 1000.95 1001.42 1002.30 1002.59 1003.43 1004.45 1005.02 1005.55 1006.26
1014.96 1012.98 1011.24 1009.60 1007.53 1005.74 1004.23 1003.15 1002.48 1002.00 1000.88 1000.22 1000.05 999.86 1000.40 1000.94 1001.96 1002.74 1003.30 1003.70 1004.49 1005.43
1015.33 1013.53 1011.69 1009.94 1007.97 1006.27 1004.84 1003.92 1002.91 1001.87 1000.55 1000.35 1000.58 1000.04 1000.10 1000.14 1000.72 1001.14 1002.04 1002.80 1003.68 1004.62
Wind_Speed
17 11 12 14 12 12 12 13 20 19 18 18 18 15 14 11 12 14 12 15 12 8
17 15 14 17 16 13 15 15 19 18 19 18 18 17 17 12 14 14 14 13 14 11
18 20 17 16 18 18 17 17 18 21 20 19 19 19 18 15 15 16 13 11 14 13
19 20 19 18 17 17 17 16 17 20 21 21 21 20 18 18 18 19 16 15 15 16
20 20 20 19 19 17 18 17 18 20 23 22 21 20 20 21 17 19 20 18 16 17
19 18 20 20 19 17 17 17 18 19 20 21 21 22 21 21 20 20 20 19 18 18
19 19 19 20 19 18 15 17 16 18 20 22 20 21 21 21 20 19 18 18 17 18
20 19 18 18 18 17 15 15 16 18 18 23 18 17 21 21 20 20 19 18 19 18
20 18 17 17 17 16 15 14 15 19 19 17 13 25 28 23 17 18 19 18 17 17
20 18 17 17 16 15 12 11 14 18 17 15 18 23 28 29 18 16 17 18 17 16
19 19 18 18 16 13 9 9 12 15 18 19 15 19 27 27 19 17 19 19 18 17
19 18 18 18 17 13 10 8 7 11 16 12 17 33 29 24 18 16 18 17 17 17
19 18 19 19 16 13 11 9 5 2 2 10 7 22 26 26 15 17 14 16 15 18
19 18 18 18 15 13 12 12 8 7 8 9 6 7 4 30 17 13 13 12 11 11
Wind_Direction
302 291 286 283 282 276 273 290 303 203 195 196 194 189 191 194 206 201 196 192 192 193
304 294 288 285 279 280 277 273 262 237 196 196 194 194 187 189 196 205 199 199 191 192
305 298 288 279 275 270 275 281 287 298 198 195 199 194 192 195 192 203 203 203 196 200
302 298 291 283 277 270 270 279 274 266 228 189 198 195 197 201 196 198 197 200 200 201
302 298 291 283 279 277 274 268 269 269 269 194 191 191 197 200 197 196 195 196 198 206
301 295 291 288 282 272 265 267 269 270 260 203 194 191 198 202 201 199 201 198 197 201
301 296 295 290 282 274 266 264 259 264 261 233 195 196 194 197 202 199 202 199 200 201
304 293 292 292 287 275 261 258 259 261 261 215 199 197 187 195 198 197 197 201 201 202
304 303 302 300 291 276 266 255 252 250 246 233 201 201 192 182 194 200 197 196 198 200
308 309 308 303 298 292 270 255 245 246 247 240 221 197 195 187 185 197 199 198 197 200
312 315 318 318 312 303 292 266 247 240 242 227 237 193 193 190 189 191 200 202 199 195
319 320 326 327 321 323 320 310 273 244 229 234 212 212 191 188 197 194 199 197 194 193
327 330 333 329 326 334 343 337 329 276 58 210 257 192 190 185 196 197 192 190 189 186
333 335 337 333 342 343 359 358 350 8 45 44 25 14 236 192 198 198 189 184 181 183